Time,TemperatureF,DewpointF,PressureIn,WindDirection,WindDirectionDegrees,WindSpeedMPH,WindSpeedGustMPH,Humidity,HourlyPrecipIn,Conditions,Clouds,dailyrainin,SoftwareType,DateUTC
2013-05-02 00:02:00,32.0,24.0,-100.00,NE,47,9.0,17.0,72,0.00,,,0.00,,2013-05-02 05:02:00,
2013-05-02 00:12:00,32.0,24.0,-100.00,NE,47,9.0,17.0,72,0.00,,,0.00,,2013-05-02 05:12:00,
2013-05-02 00:42:00,30.0,22.0,-100.00,NE,51,7.0,16.0,71,0.00,,,0.00,,2013-05-02 05:42:00,
2013-05-02 00:52:00,30.0,22.0,-100.00,NE,51,7.0,16.0,71,0.00,,,0.00,,2013-05-02 05:52:00,
2013-05-02 01:01:00,30.0,22.0,-100.00,NE,51,7.0,16.0,71,0.00,,,0.00,,2013-05-02 06:01:00,
2013-05-02 01:12:00,30.0,22.0,-100.00,NE,51,7.0,16.0,71,0.00,,,0.00,,2013-05-02 06:12:00,
2013-05-02 01:42:00,28.0,21.0,-100.00,NE,44,4.0,12.0,74,0.00,,,0.00,,2013-05-02 06:42:00,
2013-05-02 01:52:00,28.0,21.0,-100.00,NE,44,4.0,12.0,74,0.00,,,0.00,,2013-05-02 06:52:00,
2013-05-02 02:02:00,28.0,21.0,-100.00,NE,44,4.0,12.0,74,0.00,,,0.00,,2013-05-02 07:02:00,
2013-05-02 02:11:00,28.0,21.0,-100.00,NE,44,4.0,12.0,74,0.00,,,0.00,,2013-05-02 07:11:00,
2013-05-02 02:42:00,28.0,22.0,-100.00,NNE,31,6.0,10.0,77,0.00,,,-99.99,,2013-05-02 07:42:00,
2013-05-02 02:52:00,28.0,22.0,-100.00,NNE,31,6.0,10.0,77,0.00,,,-99.99,,2013-05-02 07:52:00,
2013-05-02 03:02:00,28.0,22.0,-100.00,NNE,31,6.0,10.0,77,0.00,,,-99.99,,2013-05-02 08:02:00,
2013-05-02 03:11:00,28.0,22.0,-100.00,NNE,31,6.0,10.0,77,0.00,,,-99.99,,2013-05-02 08:11:00,
2013-05-02 03:42:00,28.0,22.0,-100.00,NE,34,6.0,9.0,77,0.00,,,0.00,,2013-05-02 08:42:00,
2013-05-02 03:52:00,28.0,22.0,-100.00,NE,34,6.0,9.0,77,0.00,,,0.00,,2013-05-02 08:52:00,
2013-05-02 04:02:00,28.0,22.0,-100.00,NE,34,6.0,9.0,77,0.00,,,0.00,,2013-05-02 09:02:00,
2013-05-02 04:12:00,28.0,22.0,-100.00,NE,34,6.0,9.0,77,0.00,,,0.00,,2013-05-02 09:12:00,
2013-05-02 04:42:00,28.0,23.0,-100.00,NE,44,6.0,9.0,80,0.00,,,0.00,,2013-05-02 09:42:00,
2013-05-02 04:52:00,28.0,23.0,-100.00,NE,44,6.0,9.0,80,0.00,,,0.00,,2013-05-02 09:52:00,
2013-05-02 05:03:00,28.0,23.0,-100.00,NE,44,6.0,9.0,80,0.00,,,0.00,,2013-05-02 10:03:00,
2013-05-02 05:12:00,28.0,23.0,-100.00,NE,44,6.0,9.0,80,0.00,,,0.00,,2013-05-02 10:12:00,
2013-05-02 05:42:00,28.0,22.0,-100.00,NE,36,7.0,11.0,78,0.00,,,0.00,,2013-05-02 10:42:00,
2013-05-02 05:53:00,28.0,22.0,-100.00,NE,36,7.0,11.0,78,0.00,,,0.00,,2013-05-02 10:53:00,
2013-05-02 06:02:00,28.0,22.0,-100.00,NE,36,7.0,11.0,78,0.00,,,0.00,,2013-05-02 11:02:00,
2013-05-02 06:12:00,28.0,22.0,-100.00,NE,36,7.0,11.0,78,0.00,,,0.00,,2013-05-02 11:12:00,
2013-05-02 06:42:00,28.0,22.0,-100.00,NE,46,7.0,11.0,77,0.00,,,0.00,,2013-05-02 11:42:00,
2013-05-02 06:52:00,28.0,22.0,-100.00,NE,46,7.0,11.0,77,0.00,,,0.00,,2013-05-02 11:52:00,
2013-05-02 07:01:00,28.0,22.0,-100.00,NE,46,7.0,11.0,77,0.00,,,0.00,,2013-05-02 12:01:00,
2013-05-02 07:11:00,28.0,22.0,-100.00,NE,46,7.0,11.0,77,0.00,,,0.00,,2013-05-02 12:11:00,
2013-05-02 07:42:00,29.0,22.0,-100.00,NE,37,7.0,11.0,76,0.00,,,0.00,,2013-05-02 12:42:00,
2013-05-02 07:52:00,29.0,22.0,-100.00,NE,37,7.0,11.0,76,0.00,,,0.00,,2013-05-02 12:52:00,
2013-05-02 08:01:00,29.0,22.0,-100.00,NE,37,7.0,11.0,76,0.00,,,0.00,,2013-05-02 13:01:00,
2013-05-02 08:11:00,29.0,22.0,-100.00,NE,37,7.0,11.0,76,0.00,,,0.00,,2013-05-02 13:11:00,
2013-05-02 08:42:00,30.0,23.0,-100.00,NNE,16,7.0,11.0,75,0.00,,,0.00,,2013-05-02 13:42:00,
2013-05-02 08:52:00,30.0,23.0,-100.00,NNE,16,7.0,11.0,75,0.00,,,0.00,,2013-05-02 13:52:00,
2013-05-02 09:02:00,30.0,23.0,-100.00,NNE,16,7.0,11.0,75,0.00,,,0.00,,2013-05-02 14:02:00,
2013-05-02 09:11:00,30.0,23.0,-100.00,NNE,16,7.0,11.0,75,0.00,,,0.00,,2013-05-02 14:11:00,
2013-05-02 09:43:00,30.0,23.0,-100.00,NE,37,10.0,14.0,74,0.00,,,0.00,,2013-05-02 14:43:00,
2013-05-02 09:52:00,30.0,23.0,-100.00,NE,37,10.0,14.0,74,0.00,,,0.00,,2013-05-02 14:52:00,
2013-05-02 10:02:00,30.0,23.0,-100.00,NE,37,10.0,14.0,74,0.00,,,0.00,,2013-05-02 15:02:00,
2013-05-02 10:12:00,30.0,23.0,-100.00,NE,37,10.0,14.0,74,0.00,,,0.00,,2013-05-02 15:12:00,
2013-05-02 10:43:00,31.0,21.0,-100.00,NE,36,11.0,19.0,65,0.00,,,0.00,,2013-05-02 15:43:00,
2013-05-02 11:03:00,31.0,21.0,-100.00,NE,36,11.0,19.0,65,0.00,,,0.00,,2013-05-02 16:03:00,
2013-05-02 11:13:00,31.0,21.0,-100.00,NE,36,11.0,19.0,65,0.00,,,0.00,,2013-05-02 16:13:00,
2013-05-02 11:32:00,31.0,21.0,-100.00,NNE,26,10.0,16.0,66,0.00,,,0.00,,2013-05-02 16:32:00,
2013-05-02 11:43:00,31.0,21.0,-100.00,NNE,26,10.0,16.0,66,0.00,,,0.00,,2013-05-02 16:43:00,
2013-05-02 11:52:00,31.0,21.0,-100.00,NNE,26,10.0,16.0,66,0.00,,,0.00,,2013-05-02 16:52:00,
2013-05-02 12:02:00,31.0,21.0,-100.00,NNE,26,10.0,16.0,66,0.00,,,0.00,,2013-05-02 17:02:00,
2013-05-02 12:12:00,31.0,21.0,-100.00,NNE,26,10.0,16.0,66,0.00,,,0.00,,2013-05-02 17:12:00,
2013-05-02 12:42:00,32.0,20.0,-100.00,NE,35,12.0,17.0,61,0.00,,,0.00,,2013-05-02 17:42:00,
2013-05-02 12:52:00,32.0,20.0,-100.00,NE,35,12.0,17.0,61,0.00,,,0.00,,2013-05-02 17:52:00,
2013-05-02 13:01:00,32.0,20.0,-100.00,NE,35,12.0,17.0,61,0.00,,,0.00,,2013-05-02 18:01:00,
2013-05-02 13:11:00,32.0,20.0,-100.00,NE,35,12.0,17.0,61,0.00,,,0.00,,2013-05-02 18:11:00,
2013-05-02 13:42:00,33.0,20.0,-100.00,NNE,12,11.0,20.0,58,0.00,,,0.00,,2013-05-02 18:42:00,
2013-05-02 13:52:00,33.0,20.0,-100.00,NNE,12,11.0,20.0,58,0.00,,,0.00,,2013-05-02 18:52:00,
2013-05-02 14:01:00,33.0,20.0,-100.00,NNE,12,11.0,20.0,58,0.00,,,0.00,,2013-05-02 19:01:00,
2013-05-02 14:11:00,33.0,20.0,-100.00,NNE,12,11.0,20.0,58,0.00,,,0.00,,2013-05-02 19:11:00,
2013-05-02 14:42:00,35.0,21.0,-100.00,NNE,29,10.0,22.0,56,0.00,,,0.00,,2013-05-02 19:42:00,
2013-05-02 14:52:00,35.0,21.0,-100.00,NNE,29,10.0,22.0,56,0.00,,,0.00,,2013-05-02 19:52:00,
2013-05-02 15:02:00,35.0,21.0,-100.00,NNE,29,10.0,22.0,56,0.00,,,0.00,,2013-05-02 20:02:00,
2013-05-02 15:11:00,35.0,21.0,-100.00,NNE,29,10.0,22.0,56,0.00,,,0.00,,2013-05-02 20:11:00,
2013-05-02 15:42:00,36.0,21.0,-100.00,NNE,25,11.0,21.0,54,0.00,,,0.00,,2013-05-02 20:42:00,
2013-05-02 15:52:00,36.0,21.0,-100.00,NNE,25,11.0,21.0,54,0.00,,,0.00,,2013-05-02 20:52:00,
2013-05-02 16:01:00,36.0,21.0,-100.00,NNE,25,11.0,21.0,54,0.00,,,0.00,,2013-05-02 21:01:00,
2013-05-02 16:11:00,36.0,21.0,-100.00,NNE,25,11.0,21.0,54,0.00,,,0.00,,2013-05-02 21:11:00,
2013-05-02 16:42:00,36.0,21.0,-100.00,NE,39,12.0,19.0,54,0.00,,,0.00,,2013-05-02 21:42:00,
2013-05-02 16:53:00,36.0,21.0,-100.00,NE,39,12.0,19.0,54,0.00,,,0.00,,2013-05-02 21:53:00,
2013-05-02 17:02:00,36.0,21.0,-100.00,NE,39,12.0,19.0,54,0.00,,,0.00,,2013-05-02 22:02:00,
2013-05-02 17:12:00,36.0,21.0,-100.00,NE,39,12.0,19.0,54,0.00,,,0.00,,2013-05-02 22:12:00,
2013-05-02 17:42:00,36.0,21.0,-100.00,NE,35,11.0,18.0,53,0.00,,,0.00,,2013-05-02 22:42:00,
2013-05-02 17:53:00,36.0,21.0,-100.00,NE,35,11.0,18.0,53,0.00,,,0.00,,2013-05-02 22:53:00,
2013-05-02 18:02:00,36.0,21.0,-100.00,NE,35,11.0,18.0,53,0.00,,,0.00,,2013-05-02 23:02:00,
2013-05-02 18:11:00,36.0,21.0,-100.00,NE,35,11.0,18.0,53,0.00,,,0.00,,2013-05-02 23:11:00,
2013-05-02 18:32:00,36.0,21.0,-100.00,NNE,16,9.0,17.0,53,0.00,,,0.00,,2013-05-02 23:32:00,
2013-05-02 18:42:00,36.0,21.0,-100.00,NNE,16,9.0,17.0,53,0.00,,,0.00,,2013-05-02 23:42:00,
2013-05-02 18:52:00,36.0,21.0,-100.00,NNE,16,9.0,17.0,53,0.00,,,0.00,,2013-05-02 23:52:00,
2013-05-02 19:01:00,36.0,21.0,-100.00,NNE,16,9.0,17.0,53,0.00,,,0.00,,2013-05-03 00:01:00,
2013-05-02 19:11:00,36.0,21.0,-100.00,NNE,16,9.0,17.0,53,0.00,,,0.00,,2013-05-03 00:11:00,
2013-05-02 19:42:00,35.0,21.0,-100.00,NNE,15,9.0,15.0,56,0.00,,,0.00,,2013-05-03 00:42:00,
2013-05-02 19:52:00,35.0,21.0,-100.00,NNE,15,9.0,15.0,56,0.00,,,0.00,,2013-05-03 00:52:00,
2013-05-02 20:01:00,35.0,21.0,-100.00,NNE,15,9.0,15.0,56,0.00,,,0.00,,2013-05-03 01:01:00,
2013-05-02 20:11:00,35.0,21.0,-100.00,NNE,15,9.0,15.0,56,0.00,,,0.00,,2013-05-03 01:11:00,
2013-05-02 20:32:00,33.0,21.0,-100.00,NNE,15,8.0,15.0,60,0.00,,,0.00,,2013-05-03 01:32:00,
2013-05-02 20:42:00,33.0,21.0,-100.00,NNE,15,8.0,15.0,60,0.00,,,0.00,,2013-05-03 01:42:00,
2013-05-02 20:52:00,33.0,21.0,-100.00,NNE,15,8.0,15.0,60,0.00,,,0.00,,2013-05-03 01:52:00,
2013-05-02 21:01:00,33.0,21.0,-100.00,NNE,15,8.0,15.0,60,0.00,,,0.00,,2013-05-03 02:01:00,
2013-05-02 21:11:00,33.0,21.0,-100.00,NNE,15,8.0,15.0,60,0.00,,,0.00,,2013-05-03 02:11:00,
2013-05-02 21:32:00,33.0,22.0,-100.00,North,352,7.0,16.0,63,0.00,,,0.00,,2013-05-03 02:32:00,
2013-05-02 21:42:00,33.0,22.0,-100.00,North,352,7.0,16.0,63,0.00,,,0.00,,2013-05-03 02:42:00,
2013-05-02 21:52:00,33.0,22.0,-100.00,North,352,7.0,16.0,63,0.00,,,0.00,,2013-05-03 02:52:00,
2013-05-02 22:01:00,33.0,22.0,-100.00,North,352,7.0,16.0,63,0.00,,,0.00,,2013-05-03 03:01:00,
2013-05-02 22:11:00,33.0,22.0,-100.00,North,352,7.0,16.0,63,0.00,,,0.00,,2013-05-03 03:11:00,
2013-05-02 22:33:00,32.0,21.0,-100.00,NNE,13,4.0,10.0,64,0.00,,,0.00,,2013-05-03 03:33:00,
2013-05-02 22:43:00,32.0,21.0,-100.00,NNE,13,4.0,10.0,64,0.00,,,0.00,,2013-05-03 03:43:00,
2013-05-02 22:53:00,32.0,21.0,-100.00,NNE,13,4.0,10.0,64,0.00,,,0.00,,2013-05-03 03:53:00,
2013-05-02 23:03:00,32.0,21.0,-100.00,NNE,13,4.0,10.0,64,0.00,,,0.00,,2013-05-03 04:03:00,
2013-05-02 23:12:00,32.0,21.0,-100.00,NNE,13,4.0,10.0,64,0.00,,,0.00,,2013-05-03 04:12:00,
2013-05-02 23:32:00,32.0,20.0,-100.00,NNW,343,7.0,15.0,61,0.00,,,0.00,,2013-05-03 04:32:00,
2013-05-02 23:43:00,32.0,20.0,-100.00,NNW,343,7.0,15.0,61,0.00,,,0.00,,2013-05-03 04:43:00,
2013-05-02 23:53:00,32.0,20.0,-100.00,NNW,343,7.0,15.0,61,0.00,,,0.00,,2013-05-03 04:53:00,